Time,TemperatureF,DewpointF,PressureIn,WindDirection,WindDirectionDegrees,WindSpeedMPH,WindSpeedGustMPH,Humidity,HourlyPrecipIn,Conditions,Clouds,dailyrainin,SoftwareType,DateUTC
2013-05-26 00:02:00,56.0,43.0,-100.00,SE,140,7.0,12.0,62,0.00,,,0.00,,2013-05-26 05:02:00,
2013-05-26 00:12:00,56.0,43.0,-100.00,South,175,5.0,12.0,63,0.00,,,0.00,,2013-05-26 05:12:00,
2013-05-26 00:22:00,55.0,43.0,-100.00,SE,145,6.0,11.0,63,0.00,,,0.00,,2013-05-26 05:22:00,
2013-05-26 00:32:00,55.0,43.0,-100.00,SSE,160,7.0,14.0,63,0.00,,,0.00,,2013-05-26 05:32:00,
2013-05-26 00:42:00,55.0,43.0,-100.00,SE,130,6.0,12.0,63,0.00,,,0.00,,2013-05-26 05:42:00,
2013-05-26 00:52:00,55.0,43.0,-100.00,SSE,150,6.0,10.0,63,0.00,,,0.00,,2013-05-26 05:52:00,
2013-05-26 01:01:00,55.0,43.0,-100.00,ESE,120,5.0,10.0,63,0.00,,,0.00,,2013-05-26 06:01:00,
2013-05-26 01:12:00,55.0,43.0,-100.00,SE,140,9.0,15.0,63,0.00,,,0.00,,2013-05-26 06:12:00,
2013-05-26 01:21:00,55.0,43.0,-100.00,SE,125,6.0,9.0,64,0.00,,,0.00,,2013-05-26 06:21:00,
2013-05-26 01:32:00,55.0,43.0,-100.00,ESE,115,4.0,11.0,64,0.00,,,0.00,,2013-05-26 06:32:00,
2013-05-26 01:42:00,55.0,43.0,-100.00,SSE,165,8.0,12.0,64,0.00,,,0.00,,2013-05-26 06:42:00,
2013-05-26 01:52:00,55.0,43.0,-100.00,SSE,160,9.0,15.0,64,0.00,,,0.00,,2013-05-26 06:52:00,
2013-05-26 02:01:00,55.0,43.0,-100.00,SE,135,10.0,15.0,64,0.00,,,0.00,,2013-05-26 07:01:00,
2013-05-26 02:11:00,54.0,43.0,-100.00,SE,135,7.0,12.0,63,0.00,,,0.00,,2013-05-26 07:11:00,
2013-05-26 02:21:00,54.0,43.0,-100.00,ESE,110,6.0,12.0,62,0.00,,,0.00,,2013-05-26 07:21:00,
2013-05-26 02:31:00,54.0,41.0,-100.00,SSE,150,9.0,14.0,61,0.00,,,0.00,,2013-05-26 07:31:00,
2013-05-26 02:42:00,54.0,41.0,-100.00,SE,130,7.0,14.0,60,0.00,,,0.00,,2013-05-26 07:42:00,
2013-05-26 02:52:00,54.0,41.0,-100.00,SE,135,6.0,14.0,60,0.00,,,0.00,,2013-05-26 07:52:00,
2013-05-26 03:01:00,54.0,41.0,-100.00,SE,135,6.0,10.0,60,0.00,,,0.00,,2013-05-26 08:01:00,
2013-05-26 03:11:00,54.0,41.0,-100.00,SE,130,6.0,14.0,60,0.00,,,0.00,,2013-05-26 08:11:00,
2013-05-26 03:21:00,53.0,41.0,-100.00,ESE,110,7.0,12.0,60,0.00,,,0.00,,2013-05-26 08:21:00,
2013-05-26 03:32:00,53.0,41.0,-100.00,SE,125,4.0,12.0,61,0.00,,,0.00,,2013-05-26 08:32:00,
2013-05-26 03:42:00,53.0,41.0,-100.00,SE,135,7.0,12.0,61,0.00,,,0.00,,2013-05-26 08:42:00,
2013-05-26 03:53:00,53.0,41.0,-100.00,SE,130,6.0,14.0,61,0.00,,,0.00,,2013-05-26 08:53:00,
2013-05-26 04:01:00,53.0,41.0,-100.00,SE,145,6.0,12.0,62,0.00,,,0.00,,2013-05-26 09:01:00,
2013-05-26 04:11:00,53.0,41.0,-100.00,SE,145,7.0,9.0,63,0.00,,,0.00,,2013-05-26 09:11:00,
2013-05-26 04:21:00,53.0,41.0,-100.00,SE,145,7.0,14.0,63,0.00,,,0.00,,2013-05-26 09:21:00,
2013-05-26 04:33:00,53.0,41.0,-100.00,SE,145,8.0,12.0,63,0.00,,,0.00,,2013-05-26 09:33:00,
2013-05-26 04:42:00,53.0,41.0,-100.00,SSE,155,7.0,16.0,63,0.00,,,0.00,,2013-05-26 09:42:00,
2013-05-26 04:52:00,53.0,41.0,-100.00,SE,140,9.0,12.0,63,0.00,,,0.00,,2013-05-26 09:52:00,
2013-05-26 05:02:00,53.0,41.0,-100.00,South,175,6.0,13.0,63,0.00,,,0.00,,2013-05-26 10:02:00,
2013-05-26 05:12:00,53.0,41.0,-100.00,SE,135,6.0,10.0,63,0.00,,,0.00,,2013-05-26 10:12:00,
2013-05-26 05:23:00,53.0,41.0,-100.00,SSE,160,7.0,11.0,63,0.00,,,0.00,,2013-05-26 10:23:00,
2013-05-26 05:32:00,53.0,41.0,-100.00,SSE,160,7.0,11.0,62,0.00,,,0.00,,2013-05-26 10:32:00,
2013-05-26 05:42:00,53.0,41.0,-100.00,SSE,160,6.0,10.0,62,0.00,,,0.00,,2013-05-26 10:42:00,
2013-05-26 05:52:00,53.0,41.0,-100.00,SE,145,6.0,11.0,62,0.00,,,0.00,,2013-05-26 10:52:00,
2013-05-26 06:03:00,53.0,41.0,-100.00,SE,130,6.0,9.0,62,0.00,,,0.00,,2013-05-26 11:03:00,
2013-05-26 06:11:00,53.0,41.0,-100.00,ESE,115,6.0,10.0,62,0.00,,,0.00,,2013-05-26 11:11:00,
2013-05-26 06:22:00,53.0,41.0,-100.00,SE,125,3.0,7.0,62,0.00,,,0.00,,2013-05-26 11:22:00,
2013-05-26 06:32:00,53.0,39.0,-100.00,SE,135,4.0,10.0,61,0.00,,,0.00,,2013-05-26 11:32:00,
2013-05-26 06:42:00,53.0,39.0,-100.00,SE,135,4.0,10.0,60,0.00,,,0.00,,2013-05-26 11:42:00,
2013-05-26 06:52:00,53.0,39.0,-100.00,ESE,110,5.0,9.0,59,0.00,,,0.00,,2013-05-26 11:52:00,
2013-05-26 07:02:00,53.0,39.0,-100.00,ESE,120,4.0,11.0,59,0.00,,,0.00,,2013-05-26 12:02:00,
2013-05-26 07:11:00,53.0,39.0,-100.00,SE,125,7.0,12.0,59,0.00,,,0.00,,2013-05-26 12:11:00,
2013-05-26 07:21:00,53.0,39.0,-100.00,SE,135,7.0,15.0,58,0.00,,,0.00,,2013-05-26 12:21:00,
2013-05-26 07:32:00,53.0,39.0,-100.00,SE,145,6.0,11.0,57,0.00,,,0.00,,2013-05-26 12:32:00,
2013-05-26 07:42:00,54.0,39.0,-100.00,SSE,160,7.0,16.0,56,0.00,,,0.00,,2013-05-26 12:42:00,
2013-05-26 07:52:00,54.0,39.0,-100.00,SE,125,4.0,15.0,56,0.00,,,0.00,,2013-05-26 12:52:00,
2013-05-26 08:02:00,54.0,39.0,-100.00,SE,125,4.0,11.0,55,0.00,,,0.00,,2013-05-26 13:02:00,
2013-05-26 08:11:00,54.0,37.0,-100.00,ESE,120,6.0,14.0,55,0.00,,,0.00,,2013-05-26 13:11:00,
2013-05-26 08:21:00,54.0,37.0,-100.00,ESE,120,6.0,15.0,54,0.00,,,0.00,,2013-05-26 13:21:00,
2013-05-26 08:32:00,54.0,37.0,-100.00,SSE,150,7.0,14.0,54,0.00,,,0.00,,2013-05-26 13:32:00,
2013-05-26 08:42:00,54.0,37.0,-100.00,ESE,110,7.0,14.0,53,0.00,,,0.00,,2013-05-26 13:42:00,
2013-05-26 08:52:00,54.0,37.0,-100.00,SE,125,7.0,12.0,53,0.00,,,0.00,,2013-05-26 13:52:00,
2013-05-26 09:02:00,54.0,37.0,-100.00,SE,135,6.0,14.0,53,0.00,,,0.00,,2013-05-26 14:02:00,
2013-05-26 09:11:00,54.0,37.0,-100.00,SSE,150,8.0,12.0,53,0.00,,,0.00,,2013-05-26 14:11:00,
2013-05-26 09:21:00,55.0,37.0,-100.00,ESE,120,6.0,15.0,52,0.00,,,0.00,,2013-05-26 14:21:00,
2013-05-26 09:32:00,55.0,37.0,-100.00,SE,145,6.0,13.0,52,0.00,,,0.00,,2013-05-26 14:32:00,
2013-05-26 09:41:00,56.0,39.0,-100.00,SE,125,4.0,16.0,51,0.00,,,0.00,,2013-05-26 14:41:00,
2013-05-26 09:52:00,56.0,39.0,-100.00,SE,145,7.0,18.0,51,0.00,,,0.00,,2013-05-26 14:52:00,
2013-05-26 10:01:00,56.0,39.0,-100.00,SE,145,9.0,16.0,51,0.00,,,0.00,,2013-05-26 15:01:00,
2013-05-26 10:12:00,56.0,39.0,-100.00,SE,125,6.0,15.0,51,0.00,,,0.00,,2013-05-26 15:12:00,
2013-05-26 10:22:00,56.0,39.0,-100.00,ESE,115,9.0,18.0,51,0.00,,,0.00,,2013-05-26 15:22:00,
2013-05-26 10:33:00,56.0,39.0,-100.00,SSE,150,7.0,14.0,51,0.00,,,0.00,,2013-05-26 15:33:00,
2013-05-26 10:43:00,56.0,39.0,-100.00,ESE,110,5.0,13.0,51,0.00,,,0.00,,2013-05-26 15:43:00,
2013-05-26 10:53:00,57.0,39.0,-100.00,SE,145,5.0,13.0,51,0.00,,,0.00,,2013-05-26 15:53:00,
2013-05-26 11:03:00,57.0,39.0,-100.00,SE,135,6.0,12.0,51,0.00,,,0.00,,2013-05-26 16:03:00,
2013-05-26 11:12:00,57.0,39.0,-100.00,ESE,120,6.0,11.0,51,0.00,,,0.00,,2013-05-26 16:12:00,
2013-05-26 11:23:00,57.0,37.0,-100.00,SSE,150,8.0,17.0,46,0.00,,,0.00,,2013-05-26 16:23:00,
2013-05-26 11:33:00,58.0,37.0,-100.00,SE,135,4.0,14.0,46,0.00,,,0.00,,2013-05-26 16:33:00,
2013-05-26 11:42:00,58.0,37.0,-100.00,South,170,9.0,15.0,46,0.00,,,0.00,,2013-05-26 16:42:00,
2013-05-26 11:52:00,57.0,36.0,-100.00,SE,130,9.0,17.0,45,0.00,,,0.00,,2013-05-26 16:52:00,
2013-05-26 12:02:00,56.0,36.0,-100.00,SSE,165,12.0,20.0,44,0.00,,,0.00,,2013-05-26 17:02:00,
2013-05-26 12:11:00,56.0,36.0,-100.00,ESE,115,11.0,20.0,44,0.00,,,0.00,,2013-05-26 17:11:00,
2013-05-26 12:22:00,56.0,34.0,-100.00,South,180,11.0,22.0,44,0.00,,,0.00,,2013-05-26 17:22:00,
2013-05-26 12:32:00,56.0,36.0,-100.00,SSE,155,12.0,21.0,45,0.00,,,0.00,,2013-05-26 17:32:00,
2013-05-26 12:42:00,56.0,36.0,-100.00,South,180,7.0,13.0,46,0.00,,,0.00,,2013-05-26 17:42:00,
2013-05-26 12:52:00,56.0,36.0,-100.00,SSE,150,7.0,16.0,47,0.00,,,0.00,,2013-05-26 17:52:00,
2013-05-26 13:01:00,56.0,36.0,-100.00,SE,135,7.0,16.0,47,0.00,,,0.00,,2013-05-26 18:01:00,
2013-05-26 13:12:00,56.0,37.0,-100.00,SE,125,8.0,16.0,48,0.00,,,0.00,,2013-05-26 18:12:00,
2013-05-26 13:21:00,55.0,37.0,-100.00,ESE,115,9.0,22.0,49,0.00,,,0.00,,2013-05-26 18:21:00,
2013-05-26 13:32:00,55.0,37.0,-100.00,SE,140,10.0,16.0,49,0.00,,,0.00,,2013-05-26 18:32:00,
2013-05-26 13:42:00,55.0,37.0,-100.00,SSE,155,12.0,18.0,50,0.00,,,0.00,,2013-05-26 18:42:00,
2013-05-26 13:52:00,55.0,39.0,-100.00,ESE,105,8.0,22.0,52,0.00,,,0.00,,2013-05-26 18:52:00,
2013-05-26 14:01:00,55.0,39.0,-100.00,SE,135,9.0,21.0,55,0.00,,,0.00,,2013-05-26 19:01:00,
2013-05-26 14:11:00,55.0,39.0,-100.00,ESE,120,7.0,18.0,56,0.00,,,0.00,,2013-05-26 19:11:00,
2013-05-26 14:22:00,55.0,41.0,-100.00,East,90,6.0,13.0,57,0.00,,,0.00,,2013-05-26 19:22:00,
2013-05-26 14:32:00,55.0,39.0,-100.00,ESE,120,7.0,17.0,56,0.00,,,0.00,,2013-05-26 19:32:00,
2013-05-26 14:42:00,55.0,41.0,-100.00,SE,145,7.0,16.0,57,0.00,,,0.00,,2013-05-26 19:42:00,
2013-05-26 14:52:00,55.0,41.0,-100.00,SE,140,9.0,14.0,57,0.00,,,0.00,,2013-05-26 19:52:00,
2013-05-26 15:02:00,56.0,41.0,-100.00,SE,125,7.0,17.0,58,0.00,,,0.00,,2013-05-26 20:02:00,
2013-05-26 15:11:00,56.0,41.0,-100.00,SE,140,7.0,17.0,59,0.00,,,0.00,,2013-05-26 20:11:00,
2013-05-26 15:21:00,56.0,43.0,-100.00,ESE,110,6.0,20.0,59,0.00,,,0.00,,2013-05-26 20:21:00,
2013-05-26 15:32:00,56.0,43.0,-100.00,SE,125,9.0,17.0,61,0.00,,,0.00,,2013-05-26 20:32:00,
2013-05-26 15:41:00,55.0,43.0,-100.00,SE,125,7.0,22.0,63,0.00,,,0.00,,2013-05-26 20:41:00,
2013-05-26 15:52:00,55.0,45.0,-100.00,ESE,110,6.0,17.0,64,0.00,,,0.00,,2013-05-26 20:52:00,
2013-05-26 16:02:00,56.0,45.0,-100.00,East,85,7.0,12.0,63,0.00,,,0.00,,2013-05-26 21:02:00,
2013-05-26 16:11:00,56.0,45.0,-100.00,SE,135,6.0,16.0,62,0.00,,,0.00,,2013-05-26 21:11:00,
2013-05-26 16:22:00,56.0,45.0,-100.00,ESE,110,7.0,17.0,62,0.00,,,0.00,,2013-05-26 21:22:00,
2013-05-26 16:33:00,56.0,45.0,-100.00,ESE,115,7.0,17.0,62,0.00,,,0.00,,2013-05-26 21:33:00,
2013-05-26 16:43:00,56.0,45.0,-100.00,SE,140,9.0,16.0,63,0.00,,,0.00,,2013-05-26 21:43:00,
2013-05-26 16:53:00,57.0,45.0,-100.00,SE,125,9.0,19.0,63,0.00,,,0.00,,2013-05-26 21:53:00,
2013-05-26 17:02:00,57.0,45.0,-100.00,SE,125,7.0,17.0,63,0.00,,,0.00,,2013-05-26 22:02:00,
2013-05-26 17:12:00,58.0,45.0,-100.00,East,90,6.0,14.0,63,0.00,,,0.00,,2013-05-26 22:12:00,
2013-05-26 17:23:00,58.0,46.0,-100.00,East,95,6.0,13.0,63,0.00,,,0.00,,2013-05-26 22:23:00,
2013-05-26 17:33:00,58.0,46.0,-100.00,ESE,105,6.0,14.0,64,0.00,,,0.00,,2013-05-26 22:33:00,
2013-05-26 17:42:00,57.0,46.0,-100.00,SE,140,7.0,16.0,65,0.00,,,0.00,,2013-05-26 22:42:00,
2013-05-26 17:53:00,58.0,46.0,-100.00,ESE,110,4.0,10.0,65,0.00,,,0.00,,2013-05-26 22:53:00,
2013-05-26 18:02:00,58.0,46.0,-100.00,SE,130,6.0,11.0,66,0.00,,,0.00,,2013-05-26 23:02:00,
2013-05-26 18:11:00,58.0,48.0,-100.00,ESE,115,4.0,16.0,66,0.00,,,0.00,,2013-05-26 23:11:00,
2013-05-26 18:22:00,58.0,48.0,-100.00,ESE,110,7.0,17.0,67,0.00,,,0.00,,2013-05-26 23:22:00,
2013-05-26 18:32:00,58.0,48.0,-100.00,SE,145,9.0,16.0,67,0.00,,,0.00,,2013-05-26 23:32:00,
2013-05-26 18:43:00,58.0,46.0,-100.00,SE,140,6.0,19.0,67,0.00,,,0.00,,2013-05-26 23:43:00,
2013-05-26 18:51:00,58.0,46.0,-100.00,SSE,160,9.0,15.0,67,0.00,,,0.00,,2013-05-26 23:51:00,
2013-05-26 19:02:00,58.0,46.0,-100.00,SE,125,9.0,16.0,66,0.00,,,0.00,,2013-05-27 00:02:00,
2013-05-26 19:11:00,58.0,46.0,-100.00,SE,135,9.0,14.0,66,0.00,,,0.00,,2013-05-27 00:11:00,
2013-05-26 19:21:00,58.0,46.0,-100.00,SE,135,5.0,9.0,65,0.00,,,0.00,,2013-05-27 00:21:00,
2013-05-26 19:32:00,58.0,46.0,-100.00,SE,130,1.0,12.0,65,0.00,,,0.00,,2013-05-27 00:32:00,
2013-05-26 19:41:00,58.0,46.0,-100.00,ESE,120,4.0,11.0,65,0.00,,,0.00,,2013-05-27 00:41:00,
2013-05-26 19:52:00,58.0,46.0,-100.00,SE,130,6.0,14.0,66,0.00,,,0.00,,2013-05-27 00:52:00,
2013-05-26 20:01:00,58.0,46.0,-100.00,SE,135,6.0,14.0,66,0.00,,,0.00,,2013-05-27 01:01:00,
2013-05-26 20:11:00,58.0,46.0,-100.00,SE,130,7.0,12.0,66,0.00,,,0.00,,2013-05-27 01:11:00,
2013-05-26 20:22:00,58.0,48.0,-100.00,SE,140,10.0,15.0,67,0.00,,,0.00,,2013-05-27 01:22:00,
2013-05-26 20:31:00,58.0,48.0,-100.00,SE,135,5.0,14.0,68,0.00,,,0.00,,2013-05-27 01:31:00,
2013-05-26 20:42:00,58.0,48.0,-100.00,South,170,2.0,10.0,68,0.00,,,0.00,,2013-05-27 01:42:00,
2013-05-26 20:52:00,58.0,48.0,-100.00,ESE,120,6.0,10.0,68,0.00,,,0.00,,2013-05-27 01:52:00,
2013-05-26 21:01:00,58.0,48.0,-100.00,ESE,110,2.0,7.0,69,0.00,,,0.00,,2013-05-27 02:01:00,
2013-05-26 21:11:00,58.0,48.0,-100.00,ESE,120,4.0,7.0,69,0.00,,,0.00,,2013-05-27 02:11:00,
2013-05-26 21:21:00,58.0,48.0,-100.00,ESE,120,4.0,7.0,69,0.00,,,0.00,,2013-05-27 02:21:00,
2013-05-26 21:32:00,58.0,48.0,-100.00,SE,125,6.0,9.0,69,0.00,,,0.00,,2013-05-27 02:32:00,
2013-05-26 21:42:00,58.0,48.0,-100.00,SE,130,4.0,9.0,69,0.00,,,0.00,,2013-05-27 02:42:00,
2013-05-26 21:52:00,58.0,48.0,-100.00,SE,130,3.0,9.0,69,0.00,,,0.00,,2013-05-27 02:52:00,
2013-05-26 22:02:00,58.0,48.0,-100.00,SE,125,2.0,9.0,69,0.00,,,0.00,,2013-05-27 03:02:00,
2013-05-26 22:11:00,58.0,48.0,-100.00,SE,125,5.0,9.0,69,0.00,,,0.00,,2013-05-27 03:11:00,
2013-05-26 22:21:00,58.0,48.0,-100.00,East,95,4.0,8.0,69,0.00,,,0.00,,2013-05-27 03:21:00,
2013-05-26 22:33:00,58.0,48.0,-100.00,SE,130,4.0,12.0,68,0.00,,,0.00,,2013-05-27 03:33:00,
2013-05-26 22:42:00,58.0,48.0,-100.00,SE,135,7.0,18.0,67,0.00,,,0.00,,2013-05-27 03:42:00,
2013-05-26 22:53:00,58.0,48.0,-100.00,SE,125,4.0,14.0,66,0.00,,,0.00,,2013-05-27 03:53:00,
2013-05-26 23:02:00,58.0,46.0,-100.00,East,85,3.0,9.0,66,0.00,,,0.00,,2013-05-27 04:02:00,
2013-05-26 23:12:00,58.0,46.0,-100.00,ESE,110,4.0,9.0,66,0.00,,,0.00,,2013-05-27 04:12:00,
2013-05-26 23:23:00,58.0,46.0,-100.00,ESE,120,4.0,12.0,66,0.00,,,0.00,,2013-05-27 04:23:00,
2013-05-26 23:33:00,58.0,46.0,-100.00,ESE,120,4.0,12.0,67,0.00,,,0.00,,2013-05-27 04:33:00,
2013-05-26 23:42:00,58.0,46.0,-100.00,SE,125,5.0,12.0,67,0.00,,,0.00,,2013-05-27 04:42:00,
2013-05-26 23:52:00,58.0,46.0,-100.00,SE,125,5.0,10.0,67,0.00,,,0.00,,2013-05-27 04:52:00,